Miami, FL

10:44 AM EST on December 13, 2019 (GMT -0500)
Miami International

Weather History for KMIA - October, 2019

Change the Weather History Date:

Monday, October 7, 2019

  Actual Average Record
Temperature  
Mean Temperature 81 °F 81 °F  
Max Temperature 84 °F 88 °F 93 °F (2009)
Min Temperature 77 °F 75 °F 66 °F (1908)
Degree Days  
Heating Degree Days 0 0  
Month to date heating degree days 0 0  
Since 1 July heating degree days 0 0  
Cooling Degree Days 16 16  
Month to date cooling degree days 127 117  
Year to date cooling degree days 4218 3729  
Growing Degree Days 30 (Base 50)    
Moisture  
Dew Point 74 °F    
Average Humidity 85    
Maximum Humidity 91    
Minimum Humidity 79    
Precipitation  
Precipitation 0.69 in 0.27 in 3.92 in (1924)
Month to date precipitation 1.31 1.91  
Year to date precipitation 56.48 52.17  
Snow  
Snow 0.00 in - - ()
Month to date snowfall 0.0  
Since 1 July snowfall 0.0  
Since 1 September snowfall 0.0  
Snow Depth 0.00 in    
Sea Level Pressure  
Sea Level Pressure 29.84 in    
Wind  
Wind Speed 5 mph (SSE)    
Max Wind Speed 15 mph    
Max Gust Speed 18 mph    
Visibility 9 miles    
Events Rain , Thunderstorm    
T = Trace of Precipitation, MM = Missing Value Source: NWS Daily Summary

Daily Weather History Graph

Daily Weather History Graph

Search for Another Location

Airport or City:

Astronomy

Oct. 07, 2019 Rise Set
Actual Time 7:15 AM EDT 7:01 PM EDT
Civil Twilight 6:52 AM EDT 7:24 PM EDT
Nautical Twilight 6:26 AM EDT 7:51 PM EDT
Astronomical Twilight 5:59 AM EDT 8:17 PM EDT
Moon 3:42 PM EDT (10/7) 1:49 AM EDT (10/7)
Length of Visible Light 12h 31m
Length of Day
11h 45m
Waxing Gibbous, 69% of the Moon is Illuminated
Oct 7
Waxing Gibbous
Oct 13
Full
Oct 21
Last Quarter
Oct 27
New
Nov 4
First Quarter

Hourly Weather History & Observations

Time (EDT) Temp. Heat Index Dew Point Humidity Pressure Visibility Wind Dir Wind Speed Gust Speed Precip Events Conditions
12:53 AM 80.1 °F 84.5 °F 73.9 °F 81% 29.88 in 9.0 mi Calm Calm - 0.01 in Rain Light Rain
1:53 AM 79.0 °F - 73.9 °F 84% 29.86 in 10.0 mi North 3.5 mph - 0.00 in   Mostly Cloudy
2:53 AM 79.0 °F - 73.9 °F 84% 29.85 in 10.0 mi East 4.6 mph - N/A   Scattered Clouds
4:53 AM 81.0 °F 85.8 °F 73.0 °F 77% 29.83 in 10.0 mi ESE 8.1 mph - N/A   Partly Cloudy
5:53 AM 80.1 °F 84.2 °F 73.0 °F 79% 29.83 in 10.0 mi East 5.8 mph - N/A   Scattered Clouds
6:26 AM 80.1 °F 84.2 °F 73.0 °F 79% 29.84 in 10.0 mi SSE 3.5 mph - 0.01 in Rain Light Rain
6:53 AM 77.0 °F - 72.0 °F 84% 29.85 in 10.0 mi ENE 9.2 mph - 0.01 in   Overcast
7:19 AM 78.1 °F - 72.0 °F 81% 29.85 in 10.0 mi ENE 5.8 mph - N/A   Overcast
7:53 AM 78.1 °F - 73.0 °F 84% 29.86 in 10.0 mi NE 5.8 mph - N/A   Mostly Cloudy
8:53 AM 81.0 °F 86.7 °F 75.0 °F 82% 29.86 in 10.0 mi North 3.5 mph - N/A   Overcast
9:53 AM 82.9 °F 90.2 °F 75.0 °F 77% 29.86 in 10.0 mi East 9.2 mph - 0.00 in   Mostly Cloudy
10:53 AM 82.9 °F 90.8 °F 75.9 °F 79% 29.86 in 10.0 mi Calm Calm - 0.01 in   Overcast
11:30 AM 82.9 °F 90.2 °F 75.0 °F 77% 29.87 in 10.0 mi ESE 10.4 mph - 0.15 in Thunderstorm Mostly Cloudy
11:48 AM 82.4 °F 89.5 °F 75.2 °F 79% 29.86 in 10.0 mi ESE 10.4 mph - 0.15 in   Overcast
11:53 AM 82.9 °F 90.2 °F 75.0 °F 77% 29.87 in 10.0 mi ESE 6.9 mph - 0.15 in Rain Light Rain
12:43 PM 82.0 °F 89.4 °F 75.9 °F 82% 29.86 in 9.0 mi Variable 5.8 mph - 0.00 in Thunderstorm Overcast
12:49 PM 80.6 °F 86.2 °F 75.2 °F 84% 29.85 in 10.0 mi SSE 5.8 mph - 0.00 in Thunderstorm Thunderstorm
12:53 PM 81.0 °F 86.7 °F 75.0 °F 82% 29.86 in 10.0 mi South 5.8 mph - 0.00 in Thunderstorm Thunderstorm
1:08 PM 81.0 °F 86.7 °F 75.0 °F 82% 29.84 in 10.0 mi Calm Calm - N/A Thunderstorm Overcast
1:29 PM 82.0 °F 87.9 °F 73.9 °F 76% 29.84 in 10.0 mi Calm Calm - 0.00 in Rain , Thunderstorm Light Thunderstorms and Rain
1:53 PM 81.0 °F 86.7 °F 75.0 °F 82% 29.84 in 7.0 mi Variable 4.6 mph - 0.01 in Rain Light Rain
2:00 PM 81.0 °F 86.7 °F 75.0 °F 82% 29.84 in 9.0 mi South 8.1 mph - 0.00 in Rain , Thunderstorm Light Thunderstorms and Rain
2:36 PM 80.1 °F 85.1 °F 75.0 °F 85% 29.82 in 10.0 mi WNW 4.6 mph - 0.03 in Rain Light Rain
2:53 PM 80.1 °F 85.1 °F 75.0 °F 85% 29.82 in 10.0 mi WSW 3.5 mph - 0.03 in Rain Light Rain
3:53 PM 79.0 °F - 75.0 °F 88% 29.82 in 7.0 mi NW 3.5 mph - 0.06 in Rain Light Rain
4:39 PM 79.0 °F - 75.0 °F 88% 29.82 in 1.0 mi Calm Calm - 0.15 in Rain Heavy Rain
4:50 PM 78.8 °F - 75.2 °F 89% 29.80 in 5.0 mi Calm Calm - 0.23 in Rain Light Rain
4:53 PM 79.0 °F - 75.0 °F 88% 29.81 in 5.0 mi Calm Calm - 0.23 in Rain Light Rain
5:53 PM 80.1 °F 84.2 °F 73.0 °F 79% 29.81 in 10.0 mi SE 4.6 mph - 0.00 in   Overcast
6:53 PM 80.1 °F 85.1 °F 75.0 °F 85% 29.82 in 10.0 mi Calm Calm - 0.00 in Rain Light Rain
7:15 PM 78.1 °F - 73.9 °F 87% 29.82 in 2.5 mi Calm Calm - 0.19 in Rain Light Rain
7:23 PM 78.1 °F - 73.9 °F 87% 29.82 in 7.0 mi South 3.5 mph - 0.19 in Rain Light Rain
7:31 PM 79.0 °F - 73.9 °F 84% 29.82 in 10.0 mi SW 6.9 mph - 0.19 in   Overcast
7:53 PM 79.0 °F - 73.9 °F 84% 29.83 in 10.0 mi SSW 5.8 mph - 0.19 in   Overcast
8:32 PM 78.1 °F - 73.0 °F 84% 29.83 in 10.0 mi SSW 11.5 mph - 0.00 in   Overcast
8:53 PM 78.1 °F - 73.9 °F 87% 29.84 in 10.0 mi SSW 8.1 mph - 0.00 in Rain Light Rain
9:53 PM 77.0 °F - 72.0 °F 84% 29.88 in 10.0 mi SSW 8.1 mph - 0.00 in   Overcast
10:53 PM 77.0 °F - 72.0 °F 84% 29.88 in 10.0 mi SSW 8.1 mph - N/A   Overcast
11:53 PM 77.0 °F - 72.0 °F 84% 29.87 in 10.0 mi SW 6.9 mph - N/A   Overcast